PST,Max TemperatureF,Mean TemperatureF,Min TemperatureF,Max Dew PointF,MeanDew PointF,Min DewpointF,Max Humidity, Mean Humidity, Min Humidity, Max Sea Level PressureIn, Mean Sea Level PressureIn, Min Sea Level PressureIn, Max VisibilityMiles, Mean VisibilityMiles, Min VisibilityMiles, Max Wind SpeedMPH, Mean Wind SpeedMPH, Max Gust SpeedMPH,PrecipitationIn, CloudCover, Events, WindDirDegrees
2012-12-1,57,54,50,47,41,36,86,65,47,29.65,29.52,29.29,10,10,7,17,7,26,0.08,7,Rain,144
2012-12-2,50,48,46,45,43,39,87,78,66,29.83,29.51,29.19,10,9,3,17,7,24,0.63,8,Rain,155
2012-12-3,51,50,48,46,44,42,87,82,71,30.03,29.90,29.66,10,8,2,10,5,18,0.41,8,Rain,143
2012-12-4,55,52,48,50,45,42,87,78,62,29.88,29.70,29.53,10,9,4,12,5,21,0.51,7,Rain,157
2012-12-5,50,47,44,40,38,36,82,71,59,30.22,30.15,29.90,10,10,10,12,8,20,0.03,4,Rain,152
2012-12-6,46,46,46,41,39,37,83,75,68,30.20,30.12,30.05,10,10,7,13,7,23,0.03,8,Rain,161
2012-12-7,48,44,41,41,39,36,86,79,69,30.18,30.05,29.96,10,9,2,14,7,24,0.12,7,Rain,153
2012-12-8,46,42,39,38,36,34,87,77,65,30.37,30.26,30.17,10,10,10,7,2,,0.00,6,,94
2012-12-9,46,42,39,43,39,34,93,85,76,30.40,30.34,30.29,10,6,2,5,2,,0.04,8,Rain,133
2012-12-10,48,46,45,43,42,41,89,85,80,30.43,30.35,30.13,10,7,2,7,2,,0.00,8,,106
2012-12-11,48,46,44,43,40,39,87,79,76,30.06,29.76,29.57,10,10,5,10,7,17,0.12,8,Rain,140
2012-12-12,46,44,42,41,40,37,87,82,76,30.05,29.88,29.65,10,9,2,8,3,,0.24,8,Rain,132
2012-12-13,48,45,42,39,37,35,87,78,61,30.06,29.96,29.82,10,10,8,6,3,,0.06,7,Rain,136
2012-12-14,46,40,35,39,37,33,93,85,71,29.97,29.89,29.79,10,8,1,6,2,,0.23,6,Rain,131
2012-12-15,43,38,33,37,33,30,93,81,61,29.94,29.76,29.55,10,7,0,14,5,20,0.13,7,Fog-Rain,143
2012-12-16,48,44,41,40,36,34,89,79,70,29.77,29.52,28.99,10,9,4,16,9,29,0.79,8,Rain,138
2012-12-17,50,44,39,43,34,31,83,70,61,29.91,29.53,28.96,10,10,10,22,13,44,0.08,6,Rain,168
2012-12-18,42,38,35,34,32,29,93,78,65,30.01,29.95,29.89,10,8,1,12,7,23,0.12,7,Rain-Snow,156
2012-12-19,50,44,37,41,35,28,96,77,56,29.96,29.74,29.58,10,9,4,14,6,28,0.49,8,Rain,127
2012-12-20,48,41,33,45,39,30,100,87,74,29.85,29.67,29.53,10,8,4,13,3,22,0.52,6,Rain,152
2012-12-21,46,39,32,38,33,28,93,85,68,29.84,29.76,29.68,10,8,2,6,0,,0.03,5,Rain,145
2012-12-22,50,44,39,41,38,34,92,79,61,29.76,29.61,29.52,10,10,6,12,3,,0.05,6,Rain,136
2012-12-23,46,42,39,40,37,33,89,79,65,29.84,29.73,29.63,10,9,5,7,2,,0.24,8,Rain,180
2012-12-24,45,42,39,40,38,36,93,83,76,30.19,30.09,29.87,10,10,4,9,3,,0.02,7,Rain,154
2012-12-25,45,41,37,38,35,32,93,78,60,30.04,29.77,29.68,10,9,3,15,4,26,0.46,7,Rain,119
2012-12-26,46,44,41,41,38,33,89,80,65,29.94,29.80,29.72,10,9,4,12,4,21,0.18,8,Rain,134
2012-12-27,46,42,39,41,39,37,96,86,73,30.19,30.08,29.93,10,8,2,9,4,,0.17,8,Rain,151
2012-12-28,46,42,37,40,36,30,97,81,65,30.18,30.15,30.12,10,10,10,5,1,,0.00,6,,140
2012-12-29,41,40,39,38,35,28,93,84,65,30.25,30.20,30.16,10,9,6,5,2,,0.05,8,Rain,128
2012-12-30,41,36,30,37,34,28,100,95,79,30.35,30.30,30.23,10,5,0,7,2,,0.00,5,Fog,81
2012-12-31,39,34,30,35,31,28,100,91,81,30.48,30.34,30.25,10,8,0,9,1,,0.00,2,Fog,61